Regional Weather Roundup
Issued by NWS Goodland, KS

Home | Current Version | Previous Version | Graphics & Text | Print | Product List | Glossary On
Versions: 1 2 3 4 5 6 7 8 9 10 11 12 13 14 15 16 17 18 19 20 21 22 23 24 25 26 27 28 29 30 31 32 33 34 35 36 37 38 39 40 41 42 43 44 45 46 47 48 49 50
000
ASUS43 KGLD 230659
RWRGLD

GOODLAND FORECAST AREA HOURLY WEATHER ROUNDUP
NATIONAL WEATHER SERVICE GOODLAND KS
100 AM MDT SAT AUG 23 2014

...OFFICIAL OBSERVATIONS...

CITY           SKY/WX    TMP DP  RH WIND       PRES   REMARKS
GOODLAND KS    PTCLDY    65  63  93 SE10      29.93S
HILL CITY KS   CLOUDY    69  67  93 CALM      29.90R
IMPERIAL NEB   CLOUDY    66  64  93 E6        29.92F
MCCOOK NEB     CLOUDY    67  65  93 E6        29.90F
AKRON CO       CLOUDY    61  59  93 N3        30.00R
BURLINGTON CO  PTCLDY    62  61  96 S5        29.97R
LIMON CO       CLEAR     56  56 100 W5        30.03F
$$

...UNOFFICIAL OBSERVATIONS...

CITY           SKY/WX    TMP DP  RH WIND       PRES   REMARKS
COLBY KS       CLEAR     66  66 100 E9        29.92F
NORTON KS      CLEAR     68  63  83 NE9       29.88F
SHARON SPRINGS   N/A     64  62  94 CALM        N/A
WAKEENEY KS      N/A     71  64  79 MISG        N/A
KIT CARSON CO    N/A     63  60  91 MISG        N/A
YUMA CO          N/A     63  62  97 NE8         N/A
$$


USA.gov is the U.S. government's official web portal to all federal, state and local government web resources and services.